RH
13 14 16 14 14 56 71 76 86 91 93 96 97 89 98 98 98 97 90 93 92 96 97 98 99 98 98 98 97 97 97 97
18 19 15 17 16 66 74 81 89 90 92 96 97 92 96 100 99 96 94 94 95 98 98 97 97 98 96 96 97 97 98 97
18 19 21 19 41 72 77 80 84 89 88 88 97 97 92 98 98 96 91 95 97 98 97 96 97 96 97 96 96 99 98 97
14 19 23 29 56 72 79 81 80 87 86 87 91 95 98 98 98 97 94 94 97 96 96 96 96 94 96 97 95 93 96 97
18 20 23 51 68 72 76 78 78 82 82 84 86 90 96 96 93 92 98 96 95 96 96 96 94 94 96 96 94 95 95 93
23 20 19 45 58 72 75 80 78 75 79 81 87 94 94 94 96 96 97 97 96 96 97 96 96 96 95 95 97 96 94 92
65 62 65 56 59 67 72 78 76 74 77 81 84 92 91 94 96 98 99 98 98 98 97 96 95 96 96 96 94 93 96 92
72 78 80 79 81 68 74 77 78 75 82 78 82 85 87 92 94 97 98 98 98 97 98 98 98 95 95 95 96 94 96 94
78 80 84 86 78 73 73 79 79 78 81 78 79 84 81 89 90 94 96 94 91 94 98 98 97 95 98 96 97 95 94 97
80 78 80 90 76 74 80 77 75 78 78 80 79 80 83 92 95 94 93 92 93 97 98 99 98 98 97 96 96 95 95 95
78 80 85 89 94 94 95 80 79 77 78 76 79 80 86 90 89 93 97 96 91 97 98 98 99 99 98 96 95 96 94 96
81 82 84 87 90 93 96 94 89 80 83 81 81 80 83 85 89 92 93 95 94 96 96 97 98 99 99 98 96 93 96 97
81 81 82 86 90 90 92 96 93 87 84 85 90 84 86 89 88 87 91 94 95 96 96 95 96 98 99 99 98 95 95 97
82 82 85 87 89 89 90 92 96 93 90 91 93 94 90 90 88 88 89 91 94 96 97 97 96 96 97 98 97 97 96 96
84 87 87 87 88 88 90 92 93 94 92 95 97 97 95 94 92 92 92 91 91 89 89 91 89 87 91 96 96 97 98 96
86 87 88 88 89 89 89 90 92 91 94 96 98 96 94 93 93 92 89 86 83 82 85 88 88 85 86 90 95 98 97 97
88 86 86 89 89 90 88 90 91 89 93 96 93 92 91 93 93 93 92 91 90 88 90 89 90 87 96 97 92 88 88 90
95 96 94 92 94 90 92 90 86 88 91 89 90 89 88 90 89 90 92 92 90 91 92 92 97 95 95 93 90 85 88 90
97 99 99 99 97 91 90 86 89 90 90 90 87 87 88 87 88 90 91 89 90 91 90 91 94 93 93 92 90 86 88 87
Wind_Speed
17 15 13 15 11 14 20 17 16 13 9 8 6 4 4 4 4 4 8 7 8 6 5 6 7 7 6 6 8 5 5 7
8 8 15 11 9 19 20 19 17 13 11 10 7 7 5 3 4 6 6 6 7 7 6 8 7 7 9 9 6 8 5 11
12 8 8 11 10 20 19 19 19 12 11 8 5 5 3 3 3 5 6 7 6 8 10 10 9 7 8 8 8 5 4 7
17 8 9 8 13 21 20 20 19 13 13 9 7 5 3 3 5 3 4 5 7 8 10 9 9 8 8 9 10 9 7 7
9 8 7 8 17 20 21 20 18 15 15 10 14 10 8 4 5 5 5 7 7 8 10 10 11 8 9 10 9 8 6 12
5 8 9 9 17 18 18 19 17 16 14 12 9 5 3 4 4 8 7 8 8 8 9 10 10 8 10 12 12 12 8 8
15 14 15 11 12 19 19 21 18 17 14 15 13 10 8 6 6 6 4 4 4 7 8 9 10 10 11 11 15 15 9 8
17 19 16 15 12 15 17 18 17 16 14 16 14 12 9 9 9 7 9 5 3 4 6 7 7 9 11 12 12 13 11 10
15 16 18 16 15 15 20 16 15 16 15 14 12 10 7 7 8 7 6 7 6 7 6 7 8 11 9 12 8 10 11 8
17 19 20 22 9 12 18 18 16 15 14 12 10 10 10 8 8 7 6 7 6 6 6 6 8 7 8 11 8 11 11 8
17 17 19 18 19 15 9 10 17 16 13 12 11 9 8 8 9 9 9 8 8 8 6 5 6 6 9 11 10 8 12 8
14 15 16 16 16 19 18 10 7 12 11 9 12 9 10 8 8 7 9 9 9 9 8 6 6 6 5 9 10 13 11 9
13 14 15 17 17 16 14 14 8 10 10 11 8 8 8 7 7 7 8 9 8 8 8 7 6 6 6 6 8 11 11 10
13 15 16 16 15 16 16 15 11 5 10 10 8 5 7 6 7 7 8 8 6 5 7 7 7 6 6 6 6 7 8 9
13 13 14 15 15 16 15 16 14 9 11 12 12 10 9 9 9 9 8 7 11 10 10 10 10 9 7 3 6 7 7 6
13 12 12 13 15 15 15 15 15 11 9 12 10 9 9 10 10 10 10 12 11 11 11 11 9 8 6 4 6 4 7 5
13 13 12 12 13 13 12 14 15 13 12 12 10 11 10 11 11 11 11 12 11 12 12 10 9 6 6 6 8 11 12 11
12 12 11 10 11 11 13 12 13 14 13 12 11 11 12 12 11 11 12 12 12 12 11 11 12 11 16 19 19 12 12 12
9 8 9 9 9 10 10 12 13 14 15 14 12 12 12 12 14 13 12 11 12 12 11 12 13 11 17 18 21 15 14 13
Wind_Direction
234 221 206 212 205 162 165 159 149 148 140 131 123 146 151 166 166 161 157 158 163 155 152 151 160 159 148 145 161 173 171 180
246 233 218 208 207 154 162 152 148 144 148 143 143 175 167 163 165 169 155 148 156 149 152 159 162 169 170 168 158 172 185 154
265 261 230 216 178 157 158 156 153 150 150 147 131 145 169 157 158 179 149 152 156 154 162 172 169 165 167 168 155 159 144 147
241 245 238 225 161 157 158 156 158 146 145 135 126 140 125 154 177 164 150 155 167 165 168 170 168 169 175 173 166 165 158 171
231 240 243 167 157 156 151 155 159 148 153 151 158 173 170 182 166 155 165 182 181 167 172 171 176 179 178 182 171 161 155 169
306 301 264 174 157 155 154 154 161 155 149 143 147 153 156 146 138 155 171 181 178 177 176 177 180 186 183 180 173 168 171 166
17 7 359 358 172 155 157 159 163 157 145 143 155 165 174 154 155 156 149 135 132 168 174 182 191 190 185 183 185 172 162 174
15 1 358 338 323 162 157 158 158 155 143 152 156 173 172 168 156 153 152 137 133 184 172 182 190 197 193 177 175 173 164 172
10 2 346 336 291 186 155 159 152 159 145 158 167 167 163 160 151 154 158 154 173 181 188 199 202 212 190 164 171 168 170 162
1 5 354 350 348 164 157 156 153 156 156 156 156 143 144 150 145 148 149 140 159 164 172 168 170 160 160 165 168 171 169 173
1 6 359 355 2 7 4 157 152 153 146 142 142 148 136 140 148 154 152 153 161 160 169 159 143 157 177 174 179 163 172 174
359 9 4 5 3 17 6 15 98 126 122 134 130 143 126 136 139 146 150 149 159 163 168 165 163 152 144 176 166 172 169 155
359 14 15 14 11 9 6 0 22 76 91 115 121 121 124 131 141 137 141 150 159 162 164 163 163 162 148 140 152 155 158 163
5 11 20 16 9 11 9 4 359 47 101 80 78 112 117 125 124 126 127 126 125 125 150 159 165 163 159 150 149 154 163 171
13 13 16 16 12 12 13 9 359 34 71 83 74 66 64 60 62 69 74 75 85 83 75 76 74 68 62 105 156 159 162 168
17 19 15 18 17 13 12 12 11 13 57 79 73 72 67 72 65 68 72 71 75 82 85 75 68 67 44 30 70 123 178 103
19 23 21 24 28 16 15 16 16 14 46 60 71 74 71 67 62 69 73 74 73 75 66 67 60 51 34 78 78 76 75 82
23 19 13 24 28 31 24 20 24 27 39 50 60 71 78 71 69 66 71 76 74 64 68 63 60 59 62 77 82 78 75 68
25 18 5 4 14 30 47 33 35 36 33 41 50 61 69 78 77 69 65 66 70 73 58 59 71 65 62 76 86 85 80 71